This demonstration page uses our WeatherBlox Daily Observations layout. Learn more.

Left ArrowRight Arrow

Hourly Observations for December 21, 2020

Temp ( °F °C ) Dew Point ( °F °C ) Humidity (%) Winds ( mph kmh ) Pressure ( in mb ) Visibility ( mi km ) Precip ( " mm )
12:52 am 00:52 Partly Cloudy 43 6.1 29 -1.7 58 58 WNW 5 7 29.73 1007 10 16 0.00 0.00
1:52 am 01:52 Mostly Cloudy 45 7.2 29 -1.7 54 54 W 14 22 29.74 1007 10 16 0.00 0.00
2:52 am 02:52 Mostly Clear 44 6.7 29 -1.7 55 55 WNW 13 20 29.78 1008 10 16 0.00 0.00
3:52 am 03:52 Clear 44 6.7 30 -1.1 58 58 WNW 15 24 29.81 1010 10 16 0.00 0.00
4:52 am 04:52 Clear 43 6.1 31 -0.6 63 63 WNW 14 22 29.83 1010 10 16 0.00 0.00
5:52 am 05:52 Clear 41 5 31 -0.6 67 67 WNW 15 24 29.87 1012 10 16 0.00 0.00
6:52 am 06:52 Mostly Clear 42 5.6 30 -1.1 62 62 WNW 18 30 29.91 1013 10 16 0.00 0.00
7:52 am 07:52 Mostly Sunny 42 5.6 29 -1.7 60 60 WNW 16 26 29.93 1013 10 16 0.00 0.00
8:52 am 08:52 Partly Cloudy 44 6.7 28 -2.2 53 53 WNW 20 31 29.94 1014 10 16 0.00 0.00
9:52 am 09:52 Partly Cloudy 45 7.2 28 -2.2 52 52 WNW 20 31 29.98 1015 10 16 0.00 0.00
10:52 am 10:52 Partly Cloudy 48 8.9 27 -2.8 44 44 WNW 20 31 29.98 1015 10 16 0.00 0.00
11:52 am 11:52 Partly Cloudy 50 10 28 -2.2 43 43 W 23 37 29.98 1015 10 16 0.00 0.00
12:52 pm 12:52 Partly Cloudy 52 11.1 30 -1.1 43 43 W 26 43 29.97 1015 10 16 0.00 0.00
1:52 pm 13:52 Partly Cloudy 53 11.7 30 -1.1 41 41 W 16 26 29.98 1015 10 16 0.00 0.00
2:52 pm 14:52 Partly Cloudy 53 11.7 24 -4.4 32 32 WNW 16 26 29.99 1016 10 16 0.00 0.00
3:52 pm 15:52 Partly Cloudy 52 11.1 23 -5 32 32 WNW 15 24 30.01 1016 10 16 0.00 0.00
4:52 pm 16:52 Partly Cloudy 46 7.8 23 -5 40 40 WNW 10 17 30.06 1018 10 16 0.00 0.00
5:52 pm 17:52 Mostly Clear 40 4.4 23 -5 51 51 NW 8 13 30.09 1019 10 16 0.00 0.00
6:52 pm 18:52 Mostly Clear 38 3.3 22 -5.6 52 52 Calm 30.12 1020 10 16 0.00 0.00
7:52 pm 19:52 Partly Cloudy 33 0.6 23 -5 66 66 SE 3 6 30.14 1021 10 16 0.00 0.00
8:52 pm 20:52 Mostly Cloudy 35 1.7 23 -5 61 61 N 3 6 30.15 1021 10 16 0.00 0.00
9:52 pm 21:52 Partly Cloudy 31 -0.6 23 -5 72 72 Calm 30.15 1021 10 16 0.00 0.00
10:52 pm 22:52 Mostly Cloudy 32 0 24 -4.4 73 73 E 3 6 30.16 1021 10 16 0.00 0.00
11:52 pm 23:52 Mostly Clear 30 -1.1 23 -5 75 75 SE 3 6 30.16 1021 10 16 0.00 0.00

Powered by AerisWeather